Precipitable_Water
1.03 0.83 0.82 0.77 0.74 0.70 0.64 0.58 0.50 0.41 0.40 0.46 0.48 0.54 0.53 0.53 0.54 0.54 0.54 0.56 0.53 0.50 0.51 0.53 0.50 0.49 0.51 0.53 0.58 0.63 0.65 0.65 0.59 0.56 0.55 0.53 0.52 0.52
1.05 0.86 0.83 0.82 0.78 0.76 0.71 0.67 0.63 0.54 0.44 0.47 0.49 0.52 0.55 0.53 0.55 0.52 0.53 0.56 0.53 0.51 0.49 0.48 0.49 0.53 0.56 0.60 0.63 0.65 0.62 0.59 0.57 0.54 0.51 0.50 0.48 0.47
1.04 0.90 0.85 0.84 0.80 0.77 0.78 0.73 0.66 0.61 0.51 0.50 0.51 0.52 0.52 0.51 0.54 0.53 0.54 0.53 0.52 0.48 0.46 0.47 0.52 0.55 0.56 0.63 0.65 0.60 0.57 0.53 0.50 0.49 0.46 0.46 0.46 0.45
0.96 0.93 0.90 0.86 0.82 0.79 0.75 0.71 0.68 0.65 0.58 0.48 0.47 0.48 0.49 0.51 0.51 0.50 0.51 0.53 0.48 0.46 0.46 0.51 0.54 0.57 0.64 0.63 0.58 0.57 0.51 0.47 0.44 0.43 0.43 0.44 0.44 0.43
1.00 0.95 0.92 0.90 0.83 0.80 0.76 0.72 0.70 0.65 0.62 0.54 0.49 0.51 0.50 0.50 0.48 0.49 0.48 0.47 0.46 0.44 0.50 0.54 0.58 0.62 0.59 0.55 0.53 0.49 0.46 0.44 0.44 0.42 0.42 0.42 0.40 0.39
1.05 0.98 0.94 0.87 0.82 0.76 0.74 0.74 0.72 0.66 0.63 0.57 0.54 0.50 0.50 0.50 0.49 0.47 0.44 0.44 0.42 0.47 0.56 0.60 0.62 0.57 0.54 0.50 0.48 0.45 0.42 0.42 0.42 0.43 0.43 0.41 0.38 0.34
0.97 0.94 0.92 0.89 0.87 0.82 0.76 0.75 0.70 0.64 0.61 0.57 0.53 0.51 0.49 0.48 0.47 0.47 0.42 0.41 0.47 0.57 0.59 0.63 0.57 0.54 0.50 0.48 0.43 0.41 0.42 0.42 0.44 0.42 0.37 0.33 0.30 0.29
0.88 0.86 0.82 0.81 0.82 0.82 0.80 0.77 0.73 0.65 0.59 0.55 0.53 0.51 0.51 0.51 0.50 0.46 0.43 0.47 0.51 0.67 0.64 0.55 0.56 0.49 0.47 0.42 0.43 0.42 0.41 0.44 0.40 0.37 0.32 0.29 0.29 0.28
0.84 0.81 0.78 0.77 0.78 0.77 0.76 0.75 0.73 0.69 0.66 0.62 0.56 0.55 0.55 0.54 0.46 0.43 0.51 0.58 0.64 0.62 0.57 0.51 0.50 0.46 0.44 0.44 0.40 0.41 0.40 0.40 0.35 0.31 0.29 0.27 0.27 0.27
0.82 0.80 0.77 0.76 0.74 0.73 0.70 0.68 0.67 0.65 0.63 0.60 0.59 0.57 0.50 0.46 0.50 0.59 0.62 0.64 0.62 0.59 0.58 0.48 0.47 0.42 0.42 0.39 0.39 0.37 0.37 0.31 0.29 0.27 0.25 0.26 0.25 0.26
0.83 0.82 0.80 0.75 0.73 0.72 0.68 0.65 0.63 0.60 0.59 0.54 0.50 0.48 0.54 0.60 0.63 0.63 0.62 0.58 0.53 0.54 0.55 0.45 0.45 0.40 0.37 0.35 0.35 0.34 0.30 0.28 0.25 0.25 0.24 0.24 0.25 0.24
0.86 0.83 0.80 0.77 0.76 0.73 0.70 0.65 0.60 0.59 0.58 0.58 0.56 0.59 0.62 0.65 0.65 0.64 0.60 0.51 0.47 0.45 0.48 0.43 0.41 0.38 0.32 0.32 0.31 0.29 0.26 0.25 0.23 0.23 0.22 0.22 0.21 0.21
0.84 0.82 0.81 0.81 0.78 0.75 0.70 0.66 0.64 0.65 0.62 0.60 0.62 0.66 0.67 0.65 0.66 0.62 0.57 0.52 0.45 0.45 0.48 0.44 0.40 0.37 0.31 0.27 0.25 0.26 0.23 0.21 0.22 0.21 0.20 0.20 0.20 0.20
0.84 0.85 0.85 0.83 0.78 0.74 0.70 0.69 0.69 0.69 0.69 0.69 0.66 0.63 0.62 0.63 0.60 0.57 0.53 0.52 0.50 0.45 0.46 0.42 0.35 0.31 0.28 0.25 0.22 0.22 0.21 0.22 0.21 0.20 0.20 0.19 0.19 0.19
0.85 0.86 0.87 0.84 0.81 0.78 0.76 0.74 0.72 0.69 0.67 0.63 0.62 0.63 0.64 0.60 0.56 0.53 0.54 0.49 0.47 0.45 0.41 0.38 0.33 0.30 0.27 0.24 0.20 0.20 0.20 0.19 0.21 0.20 0.20 0.19 0.18 0.18
0.82 0.81 0.80 0.79 0.78 0.76 0.76 0.75 0.71 0.68 0.64 0.63 0.64 0.63 0.60 0.55 0.54 0.52 0.46 0.44 0.38 0.36 0.37 0.35 0.32 0.28 0.24 0.23 0.22 0.20 0.20 0.19 0.20 0.20 0.21 0.20 0.19 0.19
0.78 0.76 0.73 0.73 0.72 0.71 0.71 0.70 0.68 0.66 0.64 0.63 0.60 0.56 0.55 0.55 0.49 0.46 0.41 0.37 0.33 0.31 0.29 0.30 0.29 0.28 0.26 0.23 0.19 0.19 0.19 0.18 0.20 0.20 0.20 0.18 0.18 0.18
0.67 0.64 0.64 0.66 0.65 0.65 0.64 0.63 0.63 0.62 0.59 0.57 0.56 0.56 0.52 0.46 0.43 0.40 0.37 0.34 0.30 0.29 0.27 0.26 0.26 0.24 0.21 0.20 0.22 0.19 0.19 0.19 0.20 0.20 0.20 0.17 0.15 0.16
0.55 0.56 0.57 0.59 0.60 0.60 0.60 0.59 0.57 0.57 0.58 0.57 0.55 0.48 0.45 0.41 0.39 0.36 0.33 0.31 0.28 0.26 0.25 0.25 0.24 0.20 0.17 0.15 0.18 0.23 0.20 0.20 0.20 0.19 0.19 0.17 0.16 0.16
0.54 0.53 0.54 0.55 0.56 0.56 0.55 0.55 0.55 0.56 0.55 0.50 0.46 0.42 0.40 0.38 0.35 0.32 0.30 0.28 0.26 0.25 0.24 0.24 0.22 0.21 0.19 0.17 0.17 0.19 0.23 0.21 0.20 0.19 0.18 0.18 0.18 0.18
0.51 0.51 0.52 0.52 0.53 0.54 0.54 0.54 0.54 0.52 0.48 0.43 0.41 0.39 0.37 0.34 0.32 0.31 0.29 0.27 0.25 0.24 0.22 0.22 0.23 0.25 0.23 0.23 0.19 0.19 0.21 0.23 0.23 0.20 0.19 0.17 0.15 0.14
0.49 0.50 0.52 0.54 0.53 0.54 0.53 0.52 0.49 0.46 0.43 0.41 0.38 0.35 0.34 0.32 0.29 0.28 0.27 0.25 0.24 0.24 0.23 0.23 0.24 0.24 0.22 0.21 0.19 0.19 0.20 0.21 0.22 0.22 0.22 0.21 0.18 0.13
0.48 0.49 0.50 0.51 0.51 0.50 0.48 0.46 0.43 0.40 0.38 0.35 0.33 0.32 0.31 0.29 0.29 0.27 0.26 0.25 0.25 0.24 0.23 0.22 0.23 0.23 0.22 0.21 0.21 0.20 0.19 0.19 0.19 0.18 0.18 0.20 0.20 0.20
Wind_Speed
56 57 53 51 47 45 42 40 36 34 35 35 34 37 35 34 33 32 31 30 30 30 30 31 32 33 34 35 36 38 38 36 35 34 34 34 33 34
53 56 55 52 50 47 44 42 40 36 35 34 35 34 36 35 34 33 32 32 31 32 32 32 33 34 35 36 38 38 37 36 36 36 35 34 34 35
54 55 54 53 51 49 46 43 40 38 35 34 34 34 35 35 34 34 33 33 33 33 33 34 34 36 37 38 39 38 37 37 36 35 35 35 36 36
54 54 53 53 52 50 48 45 42 39 36 35 35 34 35 35 35 34 34 34 34 34 34 35 36 38 39 39 38 37 37 36 36 35 36 36 37 38
51 52 54 53 52 51 48 45 42 40 39 37 36 36 35 35 35 35 34 35 35 35 36 36 38 39 40 40 37 37 37 36 35 36 37 37 38 38
51 49 52 52 51 49 48 46 43 42 40 38 37 36 36 35 35 35 35 35 35 36 37 38 39 40 39 37 36 36 36 36 36 37 37 38 38 39
48 49 49 49 49 49 47 46 44 43 41 40 38 36 36 35 36 35 35 35 36 37 38 40 40 37 36 36 35 35 36 36 36 37 38 38 39 40
46 46 46 46 47 47 46 46 45 43 42 40 38 38 37 36 36 36 35 35 36 39 39 38 35 35 34 34 35 37 37 36 37 38 38 39 39 41
41 43 44 44 44 43 44 43 43 43 43 41 39 38 37 38 36 35 35 37 38 37 35 34 33 34 35 36 37 36 36 36 37 38 39 38 40 42
38 40 41 43 43 42 41 40 40 40 39 39 38 37 35 35 35 35 35 36 35 33 33 32 33 34 35 36 35 34 34 36 37 37 38 40 42 44
35 37 38 40 40 40 39 38 37 35 35 34 34 33 33 33 33 34 34 33 33 32 32 32 33 34 35 34 33 32 35 35 36 37 39 40 43 46
30 31 35 36 38 38 38 37 35 35 34 32 32 31 31 33 34 34 33 31 31 32 32 32 33 33 32 32 31 34 34 35 36 38 39 41 44 47
28 31 32 33 33 33 34 34 33 32 31 30 31 32 32 31 31 30 30 31 31 32 32 32 32 32 31 31 31 33 33 36 37 39 39 43 46 49
23 24 28 29 31 31 31 31 31 30 30 30 30 29 30 30 30 30 30 30 30 31 30 31 31 30 30 31 32 32 35 37 38 39 41 45 47 49
23 23 25 25 27 28 29 30 30 29 29 29 30 31 31 30 29 29 29 30 29 30 30 31 30 31 31 32 33 34 36 36 38 40 43 46 48 50
23 24 25 26 27 26 27 29 29 30 30 30 30 30 29 29 29 29 28 28 29 29 29 29 30 30 31 32 34 35 36 37 40 42 45 47 48 51
22 24 25 26 27 27 28 29 30 30 30 30 29 29 28 28 28 27 27 27 28 28 29 29 29 30 31 33 34 35 37 38 41 44 47 48 48 51
23 24 25 26 27 27 29 29 30 29 28 28 27 27 27 27 26 26 27 27 27 27 27 28 29 30 31 33 34 35 37 40 43 45 47 49 50 51
21 23 23 24 25 25 25 26 27 27 27 26 25 25 25 25 25 25 26 26 27 27 27 28 28 29 31 32 34 36 38 41 44 45 47 49 51 52
20 20 21 21 22 22 22 23 24 25 25 25 25 24 24 24 25 25 25 25 26 27 27 28 29 30 32 33 34 37 41 43 44 46 48 49 51 54
19 19 20 20 21 21 21 20 21 22 23 23 23 24 24 24 24 25 25 26 26 27 28 29 30 31 33 35 36 38 40 43 45 47 48 50 52 52
19 19 19 20 20 20 21 21 21 22 22 22 22 23 23 24 24 25 25 26 28 28 29 30 31 33 34 35 38 40 42 43 45 46 47 49 50 51
19 19 19 20 20 21 21 21 21 21 22 22 22 23 24 24 25 26 27 28 28 29 30 31 32 33 35 37 39 41 43 45 45 45 45 47 48 49
Wind_Direction
225 221 223 224 226 228 230 231 234 237 239 240 242 242 244 247 250 255 260 265 270 274 280 284 288 292 296 299 302 304 305 305 306 305 305 305 305 305
223 221 222 224 226 228 230 233 236 239 241 242 242 244 244 247 250 255 259 265 270 274 279 283 287 292 295 298 301 302 302 302 303 303 304 303 304 304
222 222 222 223 225 227 230 233 236 238 241 243 244 245 245 248 250 255 259 265 270 274 278 282 286 291 295 298 299 299 300 301 301 301 302 302 303 303
221 221 222 224 225 227 230 233 235 238 241 242 244 246 248 248 251 255 260 265 269 273 278 282 287 291 295 297 298 298 299 300 300 300 301 301 302 302
220 221 222 224 225 227 229 232 235 238 241 243 245 247 249 249 252 256 260 264 269 273 278 284 288 291 294 295 295 296 297 298 299 300 301 301 302 302
220 221 223 224 225 227 229 231 234 237 240 242 246 246 249 249 252 256 260 265 270 274 280 284 288 290 292 293 294 295 296 297 298 300 300 301 302 302
221 223 223 223 225 227 229 231 233 236 239 242 245 248 249 250 252 257 261 266 271 276 281 285 287 288 290 292 293 295 296 297 298 300 301 302 303 303
221 221 222 223 226 227 230 231 234 236 239 242 245 247 248 250 253 256 261 267 274 278 282 283 284 286 289 291 293 295 295 296 298 300 301 303 303 304
217 218 221 224 225 227 228 231 234 236 239 242 244 245 249 251 252 257 263 271 277 280 280 280 282 286 288 291 293 294 294 295 299 300 302 303 304 306
217 220 221 222 224 225 227 230 234 236 239 243 246 248 250 249 253 261 266 273 275 277 278 280 283 287 289 291 292 293 295 298 300 302 303 305 306 307
217 219 221 221 222 223 226 228 231 235 237 241 243 243 246 250 256 263 268 270 273 275 276 280 284 287 290 290 291 291 298 299 301 303 305 306 307 308
216 217 219 220 221 224 226 228 230 232 233 236 239 244 249 255 260 264 266 267 272 276 277 280 284 288 289 290 290 294 297 299 302 304 306 307 309 310
215 216 217 216 216 219 221 224 227 229 232 236 242 249 254 255 260 263 265 269 272 275 277 281 283 285 287 291 292 295 297 301 303 305 307 310 311 312
212 215 215 214 217 220 223 225 228 232 237 240 244 247 252 258 260 263 266 270 273 276 277 280 284 285 287 290 292 296 299 302 304 306 309 312 313 314
218 219 213 214 217 223 225 224 226 232 238 241 246 255 256 256 259 263 267 270 272 276 279 281 282 285 287 289 293 296 300 304 306 308 311 313 314 316
219 218 218 221 223 225 226 229 234 238 242 248 253 253 254 255 259 263 267 270 274 277 279 281 283 286 289 290 293 297 300 304 307 310 312 314 316 317
224 222 224 227 226 230 234 236 238 242 248 250 249 251 254 256 260 262 267 269 274 277 279 282 285 288 290 292 295 298 301 304 308 311 313 315 317 318
227 229 230 232 235 235 237 239 241 243 244 246 248 250 252 255 258 262 267 271 274 277 280 283 286 291 294 295 294 299 303 306 310 312 314 315 318 320
233 231 233 235 235 236 237 236 237 239 242 244 246 248 251 254 257 263 268 271 274 278 281 284 288 291 295 298 301 299 303 307 310 312 314 316 317 320
233 231 231 230 231 233 234 236 237 237 239 243 245 249 252 255 260 264 268 272 276 278 282 285 288 291 295 298 302 303 305 308 311 313 314 316 317 319
231 230 229 229 229 233 233 233 234 236 238 242 246 249 253 257 262 266 271 273 277 281 283 286 289 293 295 299 301 304 308 310 311 313 315 316 318 320
231 229 228 231 231 231 232 234 236 238 241 244 248 251 255 259 265 269 273 276 279 281 284 288 291 294 296 299 302 305 308 311 313 314 314 315 317 319
229 230 229 229 231 234 236 235 237 240 243 247 250 255 258 263 269 273 275 277 280 283 286 289 292 295 297 300 303 306 308 311 314 315 316 316 316 316